This demonstration page uses our WeatherBlox Daily Observations layout. Learn more.

Left ArrowRight Arrow

Hourly Observations for December 8, 2021

Temp ( °F °C ) Dew Point ( °F °C ) Humidity (%) Winds ( mph kmh ) Pressure ( in mb ) Visibility ( mi km ) Precip ( " mm )
12:51 am 00:51 Clear 42 5.6 24 -4.4 49 49 E 6 9 29.98 1015 10 16 0.00 0.00
1:51 am 01:51 Clear 39 3.9 23 -5 53 53 W 7 11 29.98 1015 10 16 0.00 0.00
2:51 am 02:51 Clear 37 2.8 23 -5 57 57 N 5 7 30.00 1016 10 16 0.00 0.00
3:51 am 03:51 Clear 34 1.1 22 -5.6 61 61 Calm 29.99 1016 10 16 0.00 0.00
4:51 am 04:51 Clear 35 1.7 23 -5 61 61 NNW 3 6 30.00 1016 10 16 0.00 0.00
5:51 am 05:51 Clear 33 0.6 21 -6.1 61 61 E 5 7 30.03 1017 10 16 0.00 0.00
6:51 am 06:51 Clear 37 2.8 23 -5 57 57 SE 3 6 30.04 1017 10 16 0.00 0.00
7:51 am 07:51 Sunny 38 3.3 24 -4.4 57 57 NNW 6 9 30.04 1017 10 16 0.00 0.00
8:51 am 08:51 Sunny 47 8.3 26 -3.3 44 44 SE 6 9 30.05 1018 10 16 0.00 0.00
10:51 am 10:51 Sunny 58 14.4 27 -2.8 31 31 SSE 8 13 30.02 1017 10 16 0.00 0.00
11:51 am 11:51 Sunny 62 16.7 27 -2.8 26 26 VRB 3 6 29.98 1015 10 16 0.00 0.00
12:51 pm 12:51 Sunny 65 18.3 28 -2.2 25 25 NW 5 7 29.94 1014 10 16 0.00 0.00
1:51 pm 13:51 Sunny 66 18.9 27 -2.8 23 23 WNW 3 6 29.92 1013 10 16 0.00 0.00
2:51 pm 14:51 Sunny 66 18.9 27 -2.8 23 23 NW 6 9 29.91 1013 10 16 0.00 0.00
3:51 pm 15:51 Sunny 65 18.3 27 -2.8 24 24 W 9 15 29.92 1013 10 16 0.00 0.00
4:51 pm 16:51 Sunny 62 16.7 27 -2.8 26 26 WSW 6 9 29.92 1013 10 16 0.00 0.00
5:51 pm 17:51 Clear 56 13.3 26 -3.3 32 32 W 8 13 29.93 1014 10 16 0.00 0.00
6:51 pm 18:51 Clear 53 11.7 27 -2.8 37 37 WNW 3 6 29.95 1014 10 16 0.00 0.00
7:51 pm 19:51 Clear 53 11.7 26 -3.3 35 35 W 5 7 29.95 1014 10 16 0.00 0.00
8:51 pm 20:51 Clear 47 8.3 25 -3.9 42 42 ESE 7 11 29.95 1014 10 16 0.00 0.00
9:51 pm 21:51 Clear 45 7.2 24 -4.4 44 44 E 5 7 29.93 1014 10 16 0.00 0.00
10:51 pm 22:51 Clear 44 6.7 25 -3.9 47 47 ENE 5 7 29.95 1014 10 16 0.00 0.00
11:51 pm 23:51 Clear 39 3.9 22 -5.6 50 50 ENE 5 7 29.94 1014 10 16 0.00 0.00

Powered by AerisWeather